GFSGBSN_850_rhum_000.txt.gz
RH
93 98 99 93 96 100 100 98 92 100 99 69 80 80 93 92 87 77 39 54 60 72 77 68 69 61 90 99 93 56 59 61 66 81 99 98 95 78 80 76 72 82 79 70 66 62 62
92 93 97 93 93 97 100 98 98 98 95 97 68 83 83 94 85 83 56 53 55 70 82 73 78 85 77 96 62 74 62 62 72 93 97 98 85 82 84 82 75 70 70 71 62 62 63
93 93 92 94 96 100 100 99 98 98 100 99 94 82 84 93 90 83 79 55 63 74 82 79 75 86 96 69 54 50 78 72 64 67 71 70 82 83 92 87 78 74 80 73 66 59 64
92 92 91 90 86 87 96 98 100 92 96 98 100 84 92 88 96 83 79 85 83 88 91 89 69 84 85 65 62 59 58 70 70 69 71 67 71 64 87 79 69 75 78 92 62 64 60
90 90 91 88 87 89 86 86 99 97 98 99 98 100 92 97 100 94 77 81 82 96 84 98 98 82 81 70 71 56 62 66 66 70 71 72 68 63 71 82 83 84 91 86 70 56 61
94 87 87 84 82 85 81 79 94 100 100 98 100 98 99 98 99 100 87 75 73 86 87 91 96 94 75 67 64 63 59 65 70 71 70 69 68 81 83 86 94 86 86 72 67 59 67
86 83 83 83 81 82 81 81 90 95 100 100 94 99 96 96 98 100 90 88 96 95 92 84 87 76 67 71 65 64 63 66 70 70 85 73 94 88 76 76 72 85 91 93 75 59 67
86 91 86 92 88 86 81 79 89 97 98 100 98 91 90 100 100 100 90 70 72 70 92 81 83 85 76 77 76 71 70 72 77 90 79 81 90 77 71 76 79 83 86 85 75 60 62
93 92 89 93 92 88 84 81 83 81 97 90 92 88 66 100 99 100 88 76 75 70 80 73 80 93 77 76 77 75 72 77 83 94 85 87 67 66 76 82 87 90 92 86 84 63 55
95 92 92 88 88 87 87 86 88 78 78 89 80 64 75 99 100 94 98 86 83 69 90 70 97 84 86 81 78 68 68 70 80 87 88 93 74 74 79 84 83 93 77 77 79 84 94
93 90 95 88 89 89 93 94 88 86 86 100 76 69 73 96 100 100 88 88 78 72 88 72 94 89 86 70 68 84 72 67 89 87 80 78 84 85 84 76 73 72 69 77 79 89 90
96 93 82 92 91 92 84 98 96 100 96 94 85 67 86 92 100 92 79 83 78 83 88 91 86 91 91 77 75 85 77 66 70 74 76 74 69 73 75 64 64 61 72 73 75 78 93
93 94 82 77 94 87 88 93 93 98 98 100 98 76 84 94 100 94 90 87 94 90 70 90 80 84 79 84 79 79 81 89 93 99 98 96 90 75 75 79 72 72 79 97 99 97 87
95 89 93 77 87 95 93 90 90 84 97 98 98 89 92 95 99 96 79 87 91 67 83 72 67 74 84 78 73 82 89 94 82 92 99 97 95 89 76 74 83 79 75 91 88 92 84
91 89 93 93 93 90 90 87 91 83 98 98 93 99 99 80 100 90 83 85 78 69 79 88 77 84 86 79 78 85 88 80 68 91 97 96 93 79 80 69 66 97 96 67 72 61 88
98 89 86 91 91 91 90 88 91 93 99 100 99 96 94 97 100 96 78 81 66 66 78 76 88 79 86 83 90 95 83 68 72 73 72 81 96 77 80 71 68 88 73 97 96 96 93
97 87 89 92 84 90 92 90 94 97 99 99 100 94 88 91 99 99 98 82 68 76 69 77 80 85 67 72 80 85 70 65 71 70 76 87 95 88 92 94 82 92 98 96 77 87 92
94 79 90 91 89 86 91 92 97 96 96 100 98 97 92 90 98 98 94 68 60 90 80 76 70 66 75 83 95 89 86 72 65 75 87 80 98 95 85 72 64 64 70 75 86 84 84
88 83 91 82 88 88 89 92 94 92 98 100 98 97 99 98 100 99 79 72 71 92 92 85 83 72 72 81 87 89 80 60 66 78 87 80 99 98 95 88 84 94 79 64 66 77 83
87 80 91 89 85 90 89 92 93 97 81 100 98 100 99 99 91 76 76 77 79 68 76 73 77 75 82 86 82 82 83 62 67 70 67 69 100 97 86 94 96 99 88 78 74 94 74
82 85 93 92 90 88 88 94 93 98 94 100 94 99 98 99 97 73 67 75 80 82 75 74 85 80 90 99 89 92 77 69 70 64 77 92 100 100 94 81 99 100 97 85 93 77 76
79 71 94 90 91 89 89 93 98 98 100 100 98 92 84 85 76 73 78 87 82 76 82 86 87 76 86 96 79 71 77 76 80 72 81 92 98 100 98 97 96 100 95 97 94 73 66
83 88 94 92 91 92 90 86 96 99 99 98 97 99 70 80 82 81 82 80 76 73 73 76 81 87 90 80 77 74 67 68 72 78 96 98 100 100 94 92 98 98 89 80 77 79 61
90 83 89 93 96 92 89 93 97 99 100 100 98 100 90 93 80 75 74 70 82 79 79 81 80 86 73 75 76 81 80 82 82 80 79 98 100 100 98 100 98 79 76 70 73 70 64
95 92 91 87 95 91 90 92 97 98 100 100 99 100 97 91 73 72 78 81 72 76 86 85 79 78 77 83 95 91 87 86 82 85 87 80 99 100 100 99 81 84 84 77 79 77 60
98 89 92 92 94 92 89 78 84 88 97 99 100 98 100 89 83 64 75 84 95 95 94 90 83 89 88 96 94 86 92 76 86 82 82 90 82 98 92 98 73 56 84 81 74 95 65
97 92 92 92 89 93 91 89 85 85 94 99 98 98 100 90 78 67 77 84 82 87 89 89 87 90 90 95 96 98 96 74 92 88 84 93 96 96 88 84 78 58 59 70 88 64 60
85 84 95 91 84 86 71 79 92 93 90 98 100 99 100 93 88 80 79 83 85 80 88 94 93 98 99 99 99 98 99 90 86 72 85 89 88 86 91 91 72 56 62 71 58 53 57
90 79 86 90 82 80 74 82 84 97 88 95 98 100 100 97 89 82 79 78 78 80 77 89 90 93 92 97 94 90 94 93 87 88 78 90 75 77 78 72 57 55 56 53 53 57 57

GFSGBSN_850_rhum_003.txt.gz
RH
92 94 94 94 93 94 93 99 100 96 98 98 98 90 85 87 89 86 81 68 41 55 69 61 49 60 89 100 94 62 65 62 71 92 98 96 87 68 75 76 73 83 79 74 70 69 67
92 92 93 94 94 92 92 89 98 99 98 98 97 97 90 88 86 94 83 79 40 55 76 73 61 68 72 96 79 79 61 58 70 96 96 98 85 82 79 81 74 72 75 72 65 62 61
92 93 92 92 92 89 91 91 88 85 100 99 100 99 100 90 91 98 86 79 44 61 72 82 67 72 84 62 52 52 71 74 75 98 97 99 91 85 91 89 83 74 78 69 66 61 59
92 93 89 91 89 91 88 87 85 83 93 100 100 100 98 99 94 95 96 82 58 78 84 86 70 75 75 64 61 57 73 72 76 69 70 69 77 78 83 82 70 74 75 86 61 61 59
89 90 91 87 92 92 92 88 86 83 93 98 99 98 98 98 100 94 100 91 73 91 87 98 99 85 76 71 70 64 58 72 71 71 72 70 70 65 80 82 81 82 82 88 69 57 56
89 94 87 87 92 94 94 91 89 85 85 94 100 97 98 92 100 98 100 97 85 90 92 90 99 94 83 68 73 70 64 65 64 70 72 70 70 82 83 84 74 80 96 78 72 58 62
96 89 86 90 92 84 73 91 88 86 87 87 97 96 92 82 99 99 100 99 94 98 91 79 83 83 73 74 70 70 64 70 70 71 85 76 91 94 80 78 67 81 86 81 66 60 68
90 91 95 96 96 89 92 86 88 90 87 86 84 82 78 76 87 100 100 95 68 52 90 75 94 86 82 76 77 75 68 72 75 89 81 84 90 73 70 74 77 78 82 78 58 63 63
97 98 94 89 90 90 92 90 89 93 84 85 77 87 80 75 81 97 98 92 70 61 63 74 83 94 77 78 76 77 71 76 83 93 89 89 73 67 73 82 78 71 76 65 66 64 60
100 98 99 94 94 92 94 88 92 85 96 96 90 95 99 68 84 87 100 98 79 64 83 68 93 86 89 77 73 69 72 67 82 86 72 75 66 76 88 89 81 84 73 75 78 84 83
99 98 97 96 95 90 80 88 88 81 90 84 96 87 88 86 93 97 97 94 76 52 75 73 92 89 88 74 68 84 76 67 89 88 86 77 84 94 84 80 76 74 69 75 80 88 92
95 98 96 96 94 93 79 90 89 95 95 94 97 98 99 88 90 92 100 95 86 84 84 92 91 94 91 76 80 85 82 68 68 74 76 73 70 70 73 68 67 64 74 71 74 78 92
94 100 99 94 86 91 87 94 91 89 90 96 84 97 99 99 90 80 100 100 98 92 68 97 90 91 77 86 82 77 83 88 91 99 95 76 77 76 72 77 73 70 98 94 95 96 81
99 100 100 84 84 90 77 89 88 91 87 85 95 100 89 98 87 100 100 98 97 71 81 66 65 82 86 69 74 81 83 90 80 91 92 96 87 75 76 70 80 82 80 91 88 83 72
94 98 95 78 93 81 84 90 91 76 81 95 100 84 90 98 92 98 98 98 82 73 80 74 69 84 88 74 71 77 86 85 74 84 96 97 90 77 81 72 63 99 97 68 95 87 93
92 92 95 88 93 77 87 88 88 87 84 100 98 92 99 92 88 95 98 98 68 74 72 71 87 73 83 83 90 86 87 74 73 69 66 78 93 77 79 73 72 81 78 96 97 95 90
96 94 94 91 92 82 84 92 91 92 88 100 99 88 90 100 84 99 100 92 70 74 67 75 81 86 75 82 84 94 77 62 73 80 73 81 96 88 90 91 80 93 98 100 98 96 87
96 95 88 92 89 73 76 92 93 93 95 100 100 98 91 98 98 99 100 69 65 83 78 78 69 71 76 73 85 84 81 68 64 79 93 78 90 98 83 70 65 64 72 72 90 88 88
93 94 92 92 80 79 87 90 98 97 95 97 99 96 92 93 99 100 88 78 75 90 88 78 80 75 74 81 90 86 83 63 70 75 87 85 99 97 88 87 77 97 80 71 69 77 86
66 95 93 87 93 83 87 89 95 96 99 100 100 100 100 96 94 90 80 82 81 73 86 78 81 76 84 87 75 87 87 66 67 72 69 72 94 94 77 78 98 99 82 85 96 94 74
71 94 93 91 91 89 88 91 85 99 98 99 99 100 96 99 98 76 72 73 85 85 74 75 82 76 81 93 88 97 89 76 74 70 74 84 98 97 93 79 94 100 95 86 98 81 79
81 95 84 89 89 96 91 87 81 98 100 98 100 96 88 94 83 70 79 78 78 78 81 87 83 74 79 89 70 82 78 80 76 78 84 86 99 100 97 94 97 99 98 92 84 78 74
95 77 93 92 85 97 91 89 90 95 99 98 98 99 96 81 79 78 83 80 82 74 72 78 77 79 87 80 70 72 72 70 72 75 87 98 99 100 91 90 100 97 93 94 88 78 76
98 97 95 92 91 94 83 82 91 87 99 100 100 100 95 94 77 73 72 72 78 76 83 83 79 86 77 78 83 88 92 95 89 84 76 98 100 100 97 98 98 94 74 70 75 62 68
83 95 89 96 89 83 93 69 81 81 95 100 100 100 100 92 75 70 74 72 68 74 83 81 80 79 79 87 92 97 93 91 90 90 90 83 98 100 100 100 88 63 72 78 79 77 59
94 94 91 95 83 74 88 89 72 86 86 99 100 100 98 97 85 63 72 80 93 93 94 87 86 86 94 96 96 100 93 78 85 79 92 87 88 100 100 98 94 52 82 65 69 73 61
61 94 92 83 83 81 82 86 69 59 71 97 100 100 99 100 81 66 80 88 81 88 89 86 86 90 97 95 100 100 94 73 89 85 95 98 98 99 97 96 80 62 65 72 77 67 64
36 68 90 80 61 82 91 86 85 35 69 90 98 100 100 99 95 75 68 74 86 82 89 87 94 97 99 99 99 99 90 90 89 72 86 87 97 96 92 94 76 60 75 80 60 56 61
17 28 80 93 76 73 86 95 82 41 47 75 90 99 100 100 98 90 82 74 74 74 78 87 88 89 89 98 97 94 97 90 89 88 79 93 75 78 81 71 56 56 60 52 59 62 62

GFSGBSN_850_rhum_006.txt.gz
RH
94 96 94 94 96 92 92 92 93 92 91 98 99 98 99 92 87 85 98 85 78 41 56 63 54 62 92 99 95 69 67 70 87 97 98 89 70 56 53 50 57 59 45 54 54 62 56
91 91 93 91 93 92 92 91 91 87 87 88 97 99 100 99 88 91 93 94 81 48 56 72 58 55 86 86 84 84 62 60 76 95 98 95 78 71 58 54 54 54 59 55 54 52 51
93 93 92 93 91 94 90 89 92 91 88 84 97 98 96 98 95 93 93 100 84 51 58 88 75 67 76 61 61 61 79 60 73 100 94 90 91 76 69 62 69 61 60 44 43 46 47
92 96 95 90 93 93 93 93 88 90 90 83 87 93 96 97 100 100 97 100 86 55 64 77 72 69 70 61 58 53 73 85 99 98 96 92 90 81 68 74 58 58 57 58 41 45 41
95 96 89 89 90 91 92 93 93 92 90 87 88 90 95 92 96 99 100 100 92 66 86 92 91 84 73 70 68 58 65 72 75 71 73 83 71 61 68 58 57 54 49 58 46 41 43
98 94 97 96 86 87 89 91 91 94 91 89 95 94 78 87 86 89 100 99 99 88 94 100 97 88 87 74 71 70 60 72 71 72 72 70 67 60 58 62 49 42 58 48 43 39 47
98 93 93 93 95 98 93 93 81 89 87 87 88 89 86 73 81 79 99 99 100 100 99 69 76 71 81 78 76 78 68 70 68 65 65 68 73 76 53 51 43 47 51 50 42 41 50
95 98 98 93 97 96 93 89 92 94 85 85 82 78 80 89 64 67 97 100 82 67 89 95 81 85 84 80 76 84 73 62 62 63 61 71 81 50 50 51 57 54 54 50 41 39 46
97 96 96 95 92 92 84 93 91 93 85 90 90 91 92 89 86 61 87 99 83 70 66 98 92 88 84 79 67 77 73 69 59 68 66 62 57 55 59 61 65 58 59 54 53 43 42
96 92 97 93 90 91 74 92 83 87 81 96 90 94 97 96 78 66 83 90 100 91 98 79 89 85 83 77 68 78 71 65 67 62 63 62 49 62 63 64 57 62 45 51 59 61 63
100 92 94 92 91 77 81 92 76 74 77 90 89 92 89 85 99 95 90 70 100 92 96 68 87 92 84 60 67 86 78 67 65 65 65 60 70 73 76 65 57 58 52 53 54 60 62
98 95 94 85 78 85 96 72 85 87 92 90 88 84 82 93 89 76 90 98 99 98 94 89 90 90 88 68 72 84 79 68 62 60 63 55 59 55 54 55 56 52 58 58 57 62 87
92 94 88 82 86 96 93 80 92 88 91 91 93 80 87 93 95 97 94 100 99 97 64 95 84 81 71 72 77 69 80 83 75 95 92 65 64 57 56 62 58 59 71 73 82 90 63
98 85 85 94 96 90 93 84 91 91 91 82 96 100 97 100 81 98 100 100 97 75 62 61 70 67 70 64 77 72 82 90 68 71 76 78 69 62 60 62 56 66 61 64 58 43 40
92 86 95 94 90 92 96 90 80 88 80 90 99 94 91 68 76 95 99 99 91 58 59 66 74 79 80 60 64 72 76 68 58 64 86 86 80 59 59 54 56 71 91 55 75 68 89
100 92 94 93 89 91 92 87 89 95 90 99 94 98 94 80 98 100 98 100 76 59 54 55 69 57 70 70 69 66 72 56 58 56 50 62 83 55 56 64 62 66 57 87 95 82 69
98 84 93 90 89 75 82 90 91 97 96 100 93 99 94 98 98 98 100 100 76 61 55 60 66 64 56 67 62 62 60 54 54 59 54 58 66 72 76 82 62 82 91 95 77 74 67
100 94 92 91 85 75 86 91 98 96 97 99 98 100 96 99 98 98 100 93 69 68 74 63 54 55 57 62 68 64 64 53 50 62 76 59 72 88 71 44 45 45 57 62 94 88 88
100 92 91 93 93 90 95 87 94 98 98 100 100 99 97 99 99 100 89 86 78 75 74 66 68 58 56 62 73 60 60 53 59 58 61 62 97 87 69 70 60 73 59 59 92 92 88
99 98 93 92 88 88 96 89 92 96 99 98 100 100 99 94 85 79 68 74 80 74 76 68 69 64 64 65 61 70 69 60 58 56 64 60 68 87 66 68 61 100 73 87 97 93 65
98 99 93 93 91 95 94 88 84 93 98 98 99 99 97 100 81 60 60 68 73 75 71 66 70 62 64 70 72 73 67 64 63 64 62 65 100 91 76 69 78 92 91 95 99 76 79
99 97 91 89 90 93 88 81 76 87 96 97 100 99 86 85 70 60 72 67 68 76 66 72 69 67 64 64 65 69 69 69 62 60 66 70 92 99 97 79 77 96 94 96 96 84 64
97 90 90 93 92 87 83 78 80 89 96 98 98 100 99 93 79 61 69 64 64 62 70 75 64 71 73 70 63 62 62 60 62 63 72 88 100 100 89 64 70 97 96 95 95 83 67
91 95 94 92 93 76 87 66 87 84 96 99 100 100 95 97 73 60 61 64 63 59 78 75 78 76 75 75 76 79 80 89 82 68 62 86 100 100 98 86 94 73 77 80 84 82 66
93 90 93 82 81 80 74 62 73 68 94 99 99 100 99 85 66 62 60 59 70 73 72 72 79 76 77 84 89 90 91 88 74 76 75 68 84 100 99 98 65 55 63 82 76 62 51
91 90 87 61 83 81 76 55 86 42 68 88 99 99 99 99 73 61 64 63 64 66 78 76 85 88 86 90 90 96 75 62 68 78 80 76 80 98 98 96 79 53 55 62 60 66 51
84 89 84 91 68 92 84 74 74 36 46 80 96 99 99 99 86 73 65 72 78 76 89 89 92 91 96 84 97 92 83 63 68 69 86 92 98 97 97 94 63 51 55 73 62 61 55
58 88 92 37 20 45 89 53 52 36 30 71 85 99 98 99 92 83 67 76 83 74 72 83 89 96 98 98 91 84 89 68 74 60 69 66 81 88 77 77 77 52 62 56 50 56 60
41 71 92 30 18 59 88 91 87 92 69 68 92 86 98 100 99 92 84 72 68 66 71 86 86 84 82 93 91 93 84 76 70 66 62 74 60 58 60 52 46 53 53 56 62 62 63

GFSGBSN_850_rhum_009.txt.gz
RH
95 94 94 94 92 94 92 93 92 91 91 91 91 91 99 98 100 92 86 92 100 87 57 56 58 58 91 99 95 76 71 72 88 93 88 73 59 49 47 39 40 44 39 31 35 40 40
94 93 94 96 93 95 92 89 88 90 90 91 90 86 92 99 93 99 93 91 99 89 62 57 64 57 91 90 84 84 75 79 81 96 90 80 67 53 49 40 44 39 41 39 40 41 42
93 97 96 86 91 93 91 91 91 88 91 90 90 90 91 90 89 96 99 92 91 92 66 63 76 69 81 67 69 75 81 78 83 92 94 89 83 70 56 51 49 50 52 41 37 38 39
98 96 93 94 90 86 90 91 88 89 91 94 93 91 90 92 86 85 97 100 87 96 67 78 81 88 66 64 70 53 73 80 84 84 84 91 78 73 59 59 50 51 45 50 32 33 31
95 99 93 97 96 92 87 77 86 72 88 90 94 96 93 90 92 77 91 100 87 100 64 80 82 85 60 66 68 64 66 71 70 76 83 85 82 61 57 54 47 45 47 42 37 29 33
98 95 98 98 99 89 81 94 84 79 91 91 91 86 94 86 84 74 88 96 96 99 85 99 97 84 73 67 77 74 66 66 64 64 67 61 55 52 51 49 51 42 48 38 34 25 35
96 98 98 97 98 90 83 85 82 88 76 77 82 70 74 64 82 72 84 83 99 99 100 75 71 60 69 76 80 74 64 65 62 59 60 60 68 67 45 42 40 38 39 35 28 25 34
96 96 98 95 99 96 88 80 89 76 73 80 76 78 84 80 88 86 68 99 100 98 96 78 71 68 72 70 71 70 63 58 60 65 51 73 80 47 39 40 43 44 45 41 32 29 34
100 98 98 95 92 85 77 77 74 75 75 77 77 78 85 93 87 74 91 81 100 98 87 84 73 72 77 74 58 72 63 53 51 54 53 61 48 45 45 50 51 45 47 43 41 35 35
99 91 94 92 89 86 80 80 85 80 73 74 82 80 88 87 78 88 89 86 99 100 100 98 88 72 78 68 61 68 62 56 54 55 53 55 40 50 48 53 45 52 35 38 45 51 52
96 99 90 84 92 80 84 82 78 75 83 84 93 91 82 94 98 99 95 96 96 99 97 87 80 73 72 55 63 70 62 64 54 50 50 55 55 55 60 50 43 50 47 47 48 54 56
96 92 81 91 87 93 95 78 90 94 88 85 91 96 85 95 99 98 95 100 94 99 97 97 87 81 74 52 62 69 68 62 50 48 49 44 46 47 47 44 45 46 51 53 52 64 80
96 94 88 94 89 94 93 78 92 93 94 92 89 97 98 83 95 98 95 99 99 97 78 94 77 74 70 64 66 70 72 72 68 90 78 59 54 48 45 55 50 53 66 68 78 91 64
95 87 77 88 91 88 84 86 88 90 94 87 91 96 98 98 90 97 100 100 97 78 69 56 72 68 79 62 57 58 66 75 53 53 63 76 74 56 54 55 53 62 58 58 53 40 34
88 86 81 85 92 77 82 87 91 84 86 90 92 79 94 92 100 96 100 93 75 65 56 69 67 79 79 62 67 62 60 65 51 50 76 69 70 46 47 46 47 58 77 48 69 53 65
97 94 86 87 90 78 80 92 91 92 92 89 72 93 99 100 98 97 99 100 95 46 49 52 67 61 74 65 75 63 62 48 55 46 42 54 74 48 46 52 49 54 46 83 91 79 56
97 87 85 90 91 90 86 89 98 94 94 83 95 95 99 88 94 98 95 100 80 48 48 52 53 54 53 57 52 57 56 48 41 46 43 48 55 68 65 69 52 66 75 90 62 70 74
96 92 87 80 88 81 86 91 98 98 100 88 97 99 99 90 98 98 100 95 72 56 66 52 44 41 44 46 50 47 49 45 43 45 60 48 62 80 64 42 39 44 58 58 90 69 80
92 84 94 86 89 81 92 92 92 98 99 98 97 100 99 95 99 100 95 90 61 70 68 54 54 44 40 46 56 47 47 44 44 48 51 52 78 82 77 57 44 54 48 47 62 81 92
89 87 90 91 86 88 92 96 88 91 98 98 98 100 98 98 94 69 95 93 79 75 61 55 55 46 47 49 50 52 56 55 48 48 57 49 61 83 62 69 52 88 72 65 86 96 69
89 95 92 93 89 83 78 76 84 84 97 98 99 96 89 94 81 77 70 73 81 74 59 53 55 49 47 54 54 56 53 56 54 53 53 56 100 80 66 58 64 70 72 72 98 94 96
92 91 93 94 93 92 92 71 79 85 86 97 98 97 82 71 54 50 57 59 62 63 55 56 53 50 48 49 50 61 54 53 56 56 59 64 88 94 92 68 66 80 66 80 91 91 96
94 88 92 87 92 79 91 78 53 90 97 98 99 99 99 90 57 51 55 54 58 56 65 60 54 55 59 58 57 58 57 53 52 56 64 76 97 97 80 54 61 88 84 95 95 84 89
93 82 85 77 77 92 81 89 44 48 99 98 99 99 97 94 55 51 52 53 54 58 68 66 63 60 74 75 73 72 72 68 68 69 67 81 95 95 99 84 92 54 57 67 81 69 59
90 83 66 62 73 85 83 82 78 27 66 100 100 98 99 72 53 53 51 58 54 58 65 69 76 77 75 75 69 73 89 89 73 78 79 62 75 95 98 79 56 59 50 75 91 71 52
92 93 53 31 12 20 63 50 50 37 30 94 96 99 98 99 59 51 50 52 57 58 63 64 90 86 87 82 82 97 91 55 66 86 73 66 69 93 81 94 82 48 48 60 71 67 50
96 96 90 27 12 14 18 60 30 40 29 48 97 95 100 100 79 74 55 56 55 54 82 87 89 89 85 84 88 100 94 56 63 63 80 94 96 94 91 98 62 39 46 64 67 59 51
98 90 92 80 24 20 40 77 91 81 61 40 100 91 95 99 90 91 72 64 75 65 73 80 86 88 87 92 99 98 98 62 62 48 63 68 80 82 82 92 78 42 47 59 52 50 52
88 98 90 95 69 48 59 89 90 92 89 83 99 98 95 96 96 97 92 81 78 70 65 81 79 72 76 90 93 93 97 66 57 61 48 63 47 52 52 50 38 44 47 49 55 56 55

GFSGBSN_850_rhum_015.txt.gz
RH
99 99 100 99 99 96 93 93 93 88 89 89 93 93 88 85 97 88 98 91 100 100 97 97 93 60 61 97 84 86 84 84 79 80 64 70 71 61 60 52 46 49 45 40 39 35 37
94 95 98 94 94 98 94 96 88 91 86 83 85 91 91 89 92 93 95 98 95 99 100 99 91 78 69 92 77 75 71 86 87 81 69 75 65 58 58 54 51 40 42 44 43 44 43
94 98 97 92 89 98 93 97 92 88 80 89 96 90 76 92 95 94 92 90 93 98 100 99 97 73 82 70 78 78 77 70 73 79 74 71 74 63 60 55 52 47 56 55 51 47 48
98 94 98 97 96 92 90 78 91 81 83 82 83 78 65 63 94 76 86 93 91 69 99 99 98 83 88 51 70 73 75 74 76 79 76 79 79 66 61 55 51 56 57 78 53 45 46
96 95 100 96 92 81 84 81 77 77 78 76 78 76 74 81 83 68 69 58 70 54 97 99 99 91 77 66 66 68 69 72 70 79 90 88 79 68 61 61 67 64 81 77 62 39 43
97 98 99 95 85 96 84 92 94 78 77 92 84 73 75 75 72 78 74 76 77 64 94 99 98 92 81 75 68 62 70 74 77 85 91 86 77 71 64 68 84 70 77 57 55 39 38
98 100 98 92 93 94 92 90 93 94 95 90 69 73 68 73 72 82 82 77 86 90 91 96 86 74 62 70 64 64 68 72 73 72 71 68 80 85 80 70 60 59 55 60 49 37 38
95 97 97 91 95 92 93 89 94 94 91 93 64 68 72 77 71 74 77 82 84 99 91 82 86 74 71 69 69 62 65 61 71 79 65 75 89 67 55 57 61 57 62 62 49 38 42
100 98 98 93 91 80 93 94 95 97 92 92 76 80 83 92 75 81 87 93 97 97 99 100 87 77 72 69 71 63 65 60 67 71 68 79 60 55 58 59 55 56 59 59 56 47 45
100 98 100 93 87 84 89 93 95 95 92 93 93 88 81 79 81 78 82 96 98 91 100 100 92 72 67 67 71 62 64 58 60 69 69 62 46 51 58 63 53 66 50 53 57 62 71
96 100 98 84 63 85 91 94 88 94 91 92 90 86 90 98 100 87 83 90 100 97 97 98 89 76 65 74 68 65 62 54 61 65 61 78 59 59 57 53 45 56 52 56 57 68 73
98 98 96 82 71 81 90 95 95 90 93 80 80 82 96 97 98 95 86 82 95 97 97 100 87 78 82 67 66 65 63 56 52 52 56 55 46 48 56 46 48 48 55 56 61 74 97
99 98 95 82 72 75 86 87 94 96 95 78 88 92 93 98 98 98 92 98 95 97 96 100 96 77 76 78 74 67 70 75 77 84 86 63 61 49 47 59 51 59 70 94 92 95 90
99 92 91 92 75 89 87 95 91 100 93 97 98 84 86 94 98 97 82 99 97 98 100 86 79 72 80 69 77 70 77 82 68 66 88 89 90 67 56 62 70 71 66 88 86 96 81
97 94 92 92 78 89 95 88 92 98 96 100 85 80 99 94 99 90 82 96 98 100 85 86 91 100 85 68 82 74 75 71 64 64 80 91 79 56 55 50 59 70 83 61 82 75 94
98 90 99 88 95 91 93 90 99 97 98 90 80 91 98 97 80 71 95 98 99 97 78 64 93 83 98 76 82 76 80 60 58 55 53 61 83 57 59 50 52 62 57 86 93 100 94
99 95 97 83 96 88 94 94 96 99 94 74 88 90 98 83 80 86 100 100 94 78 64 66 66 67 71 84 73 71 75 54 52 55 53 50 66 72 63 72 77 72 84 77 78 93 98
91 96 90 91 90 84 94 94 74 100 84 76 80 98 99 100 97 99 100 98 92 81 81 67 47 52 62 76 72 68 67 54 47 47 62 48 71 96 80 62 57 61 71 75 92 81 92
98 93 87 86 85 87 88 73 78 94 78 74 90 93 90 96 100 99 96 88 86 83 67 54 54 46 50 58 69 56 56 46 44 48 60 50 76 92 81 73 59 69 66 64 70 81 84
97 95 60 72 88 88 97 56 65 87 78 78 83 93 78 86 86 92 98 92 92 70 67 54 51 44 50 52 51 58 70 51 48 54 48 46 76 81 85 81 73 88 76 67 72 98 82
94 93 44 54 83 57 28 32 36 90 77 83 91 87 85 96 87 86 87 91 83 80 58 50 55 50 52 60 58 63 66 61 52 56 53 66 92 90 80 76 77 79 76 73 83 80 97
97 97 59 26 47 54 5 15 22 78 82 96 100 99 96 81 82 85 84 86 79 70 75 58 56 60 64 66 63 62 59 67 68 64 63 66 87 96 98 80 80 87 75 73 75 75 74
97 99 97 66 23 50 13 5 18 29 84 96 98 99 100 79 81 83 74 72 66 63 62 67 61 76 83 78 69 66 56 56 58 65 68 83 98 96 92 73 82 92 79 70 76 77 77
94 96 99 98 67 32 35 13 7 17 41 99 98 99 99 94 79 58 55 54 73 70 73 71 67 79 76 72 70 61 64 67 63 62 64 92 95 97 98 90 89 62 56 65 77 76 76
77 98 97 98 98 92 37 34 23 9 17 48 98 96 100 98 82 56 56 59 64 69 72 77 82 82 74 73 83 82 85 85 79 71 75 74 85 98 97 99 71 57 68 74 88 77 61
75 98 95 98 99 97 99 62 72 48 12 30 100 96 98 98 88 92 68 55 73 75 71 88 81 73 75 90 86 89 96 73 96 90 76 78 77 94 98 98 89 60 54 65 73 87 58
76 97 99 99 98 99 99 99 90 91 34 25 96 95 91 100 92 88 87 72 53 70 87 82 76 80 82 91 92 94 86 72 91 93 98 94 95 97 94 97 82 59 53 66 80 62 58
87 95 98 94 90 98 95 98 97 100 88 58 48 99 96 99 90 81 81 98 90 71 88 82 83 87 93 92 92 90 94 81 80 75 89 88 93 97 98 99 92 48 68 74 56 55 55
90 96 99 100 95 98 99 97 99 97 91 96 66 70 84 98 94 80 81 84 88 94 92 80 85 82 79 94 92 89 87 84 91 93 62 89 74 83 78 76 49 43 49 50 54 57 57